Location: Fauquembergues
(50.6005°N, 2.0987°E)
Time: 10:19:58
(UTC+00:00)

Cosmos 1470 Rocket - Pass Details

Date: 14 July 2020
Orbit: 603 x 634 km, 82.5° (Epoch: 06 August)

Event Time Altitude Azimuth Distance (km) Brightness Sun altitude
Exits shadow 01:16:51 25° 223° (SW) 1,278 4.6 -15.7°
Maximum altitude 01:19:08 48° 285° (WNW) 830 4.1 -15.6°
Drops below altitude 10° 01:23:31 10° 1° (N) 2,031 7.4 -15.3°
Sets 01:25:50 0° 7° (N) 2,942 8.6 -15.2°
